Regional Weather Roundup
Issued by NWS Sterling, VA

Home | Current Version | Previous Version | Text Only | Print | Product List | Glossary Off
Versions: 1 2 3 4 5 6 7 8 9 10 11 12 13 14 15 16 17 18 19 20 21 22 23 24 25 26 27 28 29 30 31 32 33 34 35 36 37 38 39 40 41 42 43 44 45 46 47 48 49 50

000
ASUS41 KLWX 011010
RWRLWX

REGIONAL WEATHER ROUNDUP
NATIONAL WEATHER SERVICE BALTIMORE MD/WASHINGTON DC
600 AM EDT MON SEP 01 2014

Note: "FAIR" indicates few or no clouds below 12,000 feet
with no significant weather and/or obstructions to visibility.
 TC=TEMPERATURE CELSIUS

 * =Non NWS site. Station does not report precipitation (e.g. rain,
    snow, etc.), thunder, or fog.

DCZ001-MDZ009-015-VAZ040>042-051-053>054-011100-
WASHINGTON METRO

CITY           SKY/WX    TMP DP  RH WIND       PRES   REMARKS
WASHINGTON NAT CLOUDY    77  72  84 CALM      30.03R
DULLES         CLOUDY    72  71  97 CALM      30.03R
ANDREWS AFB    CLOUDY    73  73  99 SW2       30.03R
QUANTICO       CLOUDY    74  72  93 W5        30.04R
COLLEGE PARK*  CLOUDY    73  73 100 CALM      30.02S
LEESBURG*      MOCLDY    72  72 100 CALM      30.04R
MANASSAS*      CLOUDY    73  72  94 S3        30.04R
GAITHERSBURG*  CLOUDY    72  70  94 CALM      30.07R

$$

MDZ006>007-011-014-011100-
BALTIMORE METRO

CITY           SKY/WX    TMP DP  RH WIND       PRES   REMARKS
BWI AIRPORT    MOCLDY    73  72  96 S3        30.02R
MD SCIENCE CTR   N/A     75  72  90 MISG      30.02R
MARTIN STATE   MOCLDY    75  75 100 CALM      30.03R FOG
ANNAPOLIS      MOCLDY    75  72  90 CALM      30.02R
FORT MEADE*    CLOUDY    70  68  94 CALM      30.05R

$$

MDZ012-015-019>023-011100-
MARYLAND EASTERN SHORE

CITY           SKY/WX    TMP DP  RH WIND       PRES   REMARKS
OCEAN CITY     CLOUDY    78  74  87 W7        30.03S
SALISBURY      LGT RAIN  79  74  84 SW3       30.03R
BAY BRIDGE AP*   N/A     73  73 100 SE3       30.02R
CAMBRIDGE*     CLOUDY    77  73  88 CALM      30.02R
EASTON*        PTCLDY    75  75 100 CALM      30.06R

$$

MDZ017>025-011100-
SOUTHERN MARYLAND

CITY           SKY/WX    TMP DP  RH WIND       PRES   REMARKS
PATUXENT RIVER MOCLDY    75  72  90 SW7       30.03R
ST INIGOES     MOCLDY    77  72  84 S6        30.02R
LEONARDTOWN*   MOCLDY    73  72  94 SW3       30.05R

$$

MDZ003>005-011100-
NORTH CENTRAL MARYLAND

CITY           SKY/WX    TMP DP  RH WIND       PRES   REMARKS
FREDERICK*     CLOUDY   N/A N/A N/A E3        30.05S
HAGERSTOWN APT LGT RAIN  73  70  90 CALM      30.03S
WESTMINSTER*   CLOUDY    72  70  94 SW3       30.04S

$$

MDZ501>502-011100-
WESTERN MARYLAND

CITY           SKY/WX    TMP DP  RH WIND       PRES   REMARKS
OAKLAND*       CLOUDY    64 N/A N/A SW7       30.13S FOG
CUMBERLAND*    CLOUDY    70  66  88 CALM      30.07F

$$

VAZ025>031-011100-
SHENANDOAH VALLEY

CITY           SKY/WX    TMP DP  RH WIND       PRES   REMARKS
WINCHESTER*    CLOUDY    72  70  94 CALM      30.04R
STAUNTON*      CLOUDY    73  67  81 S6        30.09R

$$

WVZ021-048>050-054>055-011100-
EASTERN WEST VIRGINIA PANHANDLE

CITY           SKY/WX    TMP DP  RH WIND       PRES   REMARKS
MARTINSBURG    CLOUDY    72  68  87 CALM      30.04R
PETERSBURG*    NOT AVBL

$$

VAZ036>039-050-011100-
CENTRAL FOOTHILLS

CITY           SKY/WX    TMP DP  RH WIND       PRES   REMARKS
CHARLOTTESVILL CLOUDY    72  70  93 S3        30.05F
ORANGE*        RAIN      73  72  94 CALM      30.06F

$$

VAZ055>057-011100-
NORTH AND CENTRAL PIEDMONT

CITY           SKY/WX    TMP DP  RH WIND       PRES   REMARKS
FREDERICKSBRG* CLOUDY    75  75 100 SW7       30.05R
STAFFORD*      LGT RAIN  72  72 100 W6        30.10R

$$

NCZ024-NYZ072-PAZ021-071-VAZ022-071-011100-
OTHER REGIONAL OBSERVATIONS

CITY           SKY/WX    TMP DP  RH WIND       PRES   REMARKS
NEW YORK CITY  CLOUDY    75  71  87 CALM      30.03R
PHILADELPHIA   LGT RAIN  74  71  91 SW7       30.02R
PITTSBURGH     CLOUDY    71  69  93 CALM      30.03S
ROANOKE        CLOUDY    74  68  81 W8        30.12R
RICHMOND       MOCLDY    75  72  90 S5        30.05R
RALEIGH        PTCLDY    73  71  93 SW3       30.10R

$$

ANZ530>537-011100-
MARINE OBSERVATIONS

STATION/POSITION TIME  TEMP    WIND        PRES
                       AIR SEA DIR/SP/G
                 (UTC) (F)     (DEG/KT/KT) (MB)
THOMAS PT LIGHT  1000   75 78  230/  3/  4 1017.7R
BALT KEY BRIDGE  1000          210/  2/  3 1016.3R
COVE POINT       1000   77     270/  8/  9 1016.5R
LEWISETTA        1000   77 79  240/  8/ 10 1016.7R
SOLOMONS ISLAND  1000      80                N/A
PINEY POINT      1000          230/ 10/ 11   N/A

$$



USA.gov is the U.S. government's official web portal to all federal, state and local government web resources and services.